THOR ABLESTAR DEB, 3752

Orbit data source: Space-Track

THOR ABLESTAR DEB, 3752 is space debris in LEO originally from a launch on Thu, 29 Jun 1961 UTC launched from the Air Force Eastern Test Range (AFETR). Debris objects in space refer to the collection of defunct objects orbiting the Earth. Examples of debris include non-operational satellites, rocket bodies, and fragments generated from explosions, collisions, or faulty payload assembly.

Loading next visibility...
Identifier
3752, 1961-015JE
Orbit
LEO
Country
Flag of USUS
Related business
Manufacturer
Unknown
Mission
Spacecraft
Bus & Motor
Unknown
Mass
Unknown
Launch date (UTC)
1961-06-29 (65 years ago)
Launch vehicle
Unknown
Launch site
Air Force Eastern Test Range (AFETR)
Object type
Payload
Rocket body
Debris
Shape & HBR
Unknown shape, 0.1 m
Radar Cross Section
Small (<0.1 m²)

Expand to show TLE details & history
Last TLE update: 7 hours ago

TLE from 7 hours ago
0 THOR ABLESTAR DEB
1  3752U 61015JE  26133.44797514  .00000709  00000-0  10395-2 0  9992
2  3752  67.6282 189.5135 0211062 268.1952 109.6513 13.51074743800566
Epoch: 2026-05-13T10:45Z
TLE epoch observation values (Epoch: 2026-05-13T10:45:05.052Z)
Latitude
18.54108°
Longitude
164.92867°
Altitude
1,125.661 km
Speed
7.264 km/s
True Right ascension
13h 09m 37s
True Declination
18° 26' 34"
Sunlit
Object was in full shadow at epoch
Visualization orbit readout
Latitude
Unknown
Longitude
Unknown
Altitude
Unknown
Speed
Unknown
Apparent Right ascension
Unknown
Apparent Declination
Unknown
Sunlit
N/A
Visualization observer readout
Local Sidereal Time
01:56:19
Azimuth
Unknown
Elevation
Unknown
Doppler factor
Unknown
Orbital elements
Apogee altitude
1,223.77 km
Perigee altitude
909.508 km
Semi-major axis
7,444.776 km
Eccentricity
0.02111
Inclination
67.6282°
RAAN
189.5135°
Arg. of periapsis
268.1952°
True anomaly
111.9084°
Mean anomaly
109.6513°
Eccentric anomaly
110.78192°
Mean motion
3.37883 °/min
Orbital period
106.55 mins
BSTAR
0.0010395
Loading maneuver chart data...
Computing Atmospheric mass density...

Documentation

Showing up to 5 results
|